[[{"header":{"parameterUnit":"m.s-1","parameterCategory":1,"la1":30.2991,"la2":30.254,"lo1":-89.0895,"lo2":-89.0444,"dy":0.0017,"dx":0.0017,"nx":28,"ny":28,"refTime":"2025-11-10T09:00:00:Z","depth":0,"parameterNumber":2,"parameterNumberName":"U-component_of_WINDS"},"data":[0,0,0,0,0,0,0,0,0,0,0,0,0,0,0,0,0,0,0,0,0,0,0,0,0,0,0,0,0,0,0,0,0,0,0,0,0,0,0,0,0,0,0,0,0,0,0,0,0,0,0,0,0,0,0,0,0,0,4.5915,4.5915,0,4.5979,4.5979,4.598,4.5954,4.5953,4.5951,4.595,4.6013,4.6016,4.6019,0,0,0,0,0,0,0,0,0,0,0,0,0,4.5769,4.5772,4.5914,4.5915,4.5916,4.5978,4.5979,4.598,4.5955,4.5953,4.5951,4.5949,4.6012,4.6015,4.6019,0,0,0,0,0,0,0,0,0,0,0,0,0,4.5832,4.5773,4.5914,4.5911,4.5911,4.5978,4.5979,4.598,4.5955,4.5953,4.595,4.5948,4.6011,4.6015,4.602,4.6093,0,0,4.6034,4.6036,0,0,0,0,0,0,0,0,4.5829,4.5838,4.5911,4.5911,4.5912,4.5956,4.5951,4.6018,4.5956,4.5938,4.595,4.5947,4.5996,4.6001,4.6018,4.6096,4.6099,4.6034,4.6037,4.6039,4.604,0,0,0,0,0,0,0,4.5824,4.5835,4.594,4.5912,4.5912,4.5906,4.5912,4.5964,4.5979,4.594,4.5938,4.5946,4.5995,4.6014,4.6019,4.61,4.6034,4.6038,4.6041,4.6043,4.6243,4.6245,0,0,0,0,0,0,4.582,4.5831,4.5938,4.5942,4.5864,4.591,4.5918,4.5944,4.5978,4.5981,4.5948,4.5945,4.6007,4.6014,4.6022,4.6111,4.6039,4.6043,4.6046,4.624,4.6244,4.6246,0,0,0,0,0,0,4.5817,4.583,4.5935,4.5886,4.5899,4.5915,4.5945,4.5947,4.5965,4.5984,4.5987,4.5964,4.6006,4.6015,4.6076,4.6113,4.6045,4.6049,4.6237,4.6241,4.6245,4.6289,0,0,0,0,0,0,4.5813,4.5829,4.5857,4.5887,4.5902,4.5989,4.5947,4.5949,4.5973,4.597,4.6,4.6003,4.6005,4.6069,4.6081,4.6118,4.6053,4.6234,4.6239,4.6244,4.6285,4.6294,4.6302,0,0,0,0,0,4.5808,4.5866,4.5859,4.5872,4.5937,4.5991,4.5999,4.6001,4.5976,4.6005,4.6018,4.6002,4.6107,4.6076,4.6088,4.6127,4.6232,4.6238,4.6243,4.6281,4.6292,4.6302,0,0,0,0,0,0,4.5838,4.587,4.5862,4.5931,4.5959,4.5987,4.6022,4.6013,4.6047,4.6042,4.6042,4.6049,4.6112,4.6126,4.6091,4.6201,4.6166,4.6174,4.619,4.6201,4.621,4.6205,4.6057,0,0,0,0,0,4.5853,4.5895,4.592,4.5979,4.5993,4.6006,4.6029,4.6028,4.6056,4.6067,4.6084,4.6112,4.6151,4.6177,4.6214,4.6287,4.6294,4.632,4.6329,4.6336,4.6343,4.6384,4.6396,4.6265,4.6265,4.6265,0,0,4.5884,4.5906,4.5932,4.5986,4.6007,4.605,4.6015,4.6062,4.6094,4.6074,4.6133,4.6147,4.6178,4.6245,4.6276,4.6259,4.6381,4.6343,4.6349,4.6352,4.6391,4.6404,4.6415,4.6269,4.6268,4.6268,0,0,4.5962,4.5983,4.6035,4.6058,4.6091,4.61,4.6113,4.6142,4.6151,4.6211,4.6198,4.6236,4.6303,4.6326,4.6346,4.6437,4.6424,4.6449,4.6495,4.6534,4.6545,4.6554,4.6587,4.6598,4.6456,4.6456,4.6456,0,4.5996,4.6061,4.6063,4.6111,4.6136,4.6122,4.6175,4.6196,4.624,4.6257,4.6237,4.6323,4.6343,4.6416,4.6439,4.6455,4.647,4.6445,4.6543,4.6553,4.6561,4.6592,4.6604,4.6459,4.6459,4.6458,4.6458,0,4.6101,4.6146,4.6184,4.6228,4.6257,4.6307,4.6317,4.6346,4.6343,4.6354,4.6416,4.6439,4.6482,4.6499,4.6496,4.6573,4.6562,4.6543,4.6507,4.6576,4.6606,4.6618,4.6463,4.6462,4.6461,4.646,0,0,4.6197,4.6245,4.6258,4.6279,4.6316,4.6351,4.6401,4.6444,4.6469,4.65,4.6543,4.6602,4.6585,4.6609,4.6609,4.6644,4.6715,4.6621,4.6622,4.6638,4.6802,4.6815,4.6829,4.6707,4.6709,4.6711,4.6799,0,4.6279,4.6368,4.6373,4.6454,4.6496,4.6485,4.6529,4.6557,4.6569,4.6606,4.6619,4.6661,4.6636,4.665,4.6685,4.6699,4.6748,4.6693,4.6746,4.6748,4.6738,4.6844,4.6858,4.694,4.6811,4.6813,4.6814,0,4.6385,4.6421,4.6507,4.654,4.6558,4.6597,4.6638,4.6674,4.6706,4.6712,4.674,4.6735,4.6787,4.6751,4.6823,4.6785,4.6808,4.6818,4.6822,4.6826,4.6785,4.6851,4.6966,4.6978,4.6832,4.6831,4.6829,0,4.6447,4.6518,4.6578,4.6596,4.6636,4.6664,4.6682,4.6712,4.6738,4.6774,4.6791,4.6832,4.6854,4.6886,4.6893,4.6866,4.6965,4.6929,4.6972,4.6972,4.6992,4.699,4.7112,4.7007,4.7007,4.7007,4.7007,0,4.6537,4.659,4.6607,4.6644,4.6704,4.6709,4.6768,4.6783,4.681,4.6851,4.6844,4.6881,4.6889,4.6928,4.6934,4.6993,4.7003,4.701,4.701,4.701,4.7009,4.7024,4.7018,4.701,4.701,4.7009,4.7008,0,4.6616,4.663,4.6696,4.6729,4.6739,4.6781,4.6809,4.6845,4.6857,4.6909,4.6921,4.694,4.6986,4.6997,4.7051,4.7055,4.7125,4.7121,4.7115,4.7115,4.7157,4.7153,4.7291,4.731,4.7194,4.7195,4.7196,0,4.6672,4.6713,4.6752,4.6779,4.6799,4.6842,4.687,4.6877,4.6906,4.6947,4.6978,4.7024,4.7061,4.7136,4.7154,4.7196,4.7192,4.7238,4.7198,4.7197,4.7193,4.719,4.7195,4.7245,4.7246,4.7247,4.7248,0,4.6771,4.6776,4.6817,4.686,4.6893,4.6928,4.696,4.6983,4.6995,4.7028,4.7076,4.7105,4.7162,4.7208,4.7251,4.7269,4.7261,4.7261,4.7273,4.7273,4.7268,4.7271,4.7135,4.7257,4.7256,4.7256,4.7255,4.7255,4.684,4.6877,4.691,4.6956,4.6982,4.7013,4.7049,4.7067,4.7107,4.7155,4.7157,4.721,4.7242,4.7299,4.732,4.7362,4.7347,4.7365,4.7369,4.7373,4.7377,4.7262,4.7369,4.7369,4.7369,4.7369,4.7368,0,4.6939,4.696,4.7002,4.7049,4.7086,4.7077,4.7113,4.7143,4.719,4.7222,4.7259,4.7315,4.736,4.7383,4.7428,4.7457,4.7454,4.7468,4.7466,4.747,4.7387,4.7372,4.747,4.7469,4.7469,4.7469,4.7469,4.7469,4.6994,4.7055,4.7065,4.714,4.7161,4.7213,4.7235,4.7264,4.7289,4.7353,4.7391,4.7406,4.7434,4.7481,4.7523,4.7528,4.7545,4.7561,4.7565,4.7486,4.7476,4.7466,4.7452,4.7564,4.7565,4.7644,4.7645,4.7645]},{"header":{"parameterUnit":"m.s-1","parameterCategory":1,"la1":30.2991,"la2":30.254,"lo1":-89.0895,"lo2":-89.0444,"dy":0.0017,"dx":0.0017,"nx":28,"ny":28,"refTime":"2025-11-10T09:00:00:Z","depth":0,"parameterNumber":3,"parameterNumberName":"V-component_of_WINDS"},"data":[0,0,0,0,0,0,0,0,0,0,0,0,0,0,0,0,0,0,0,0,0,0,0,0,0,0,0,0,0,0,0,0,0,0,0,0,0,0,0,0,0,0,0,0,0,0,0,0,0,0,0,0,0,0,0,0,0,0,-7.0809,-7.081,0,-7.0939,-7.094,-7.0942,-7.0905,-7.0902,-7.0899,-7.0897,-7.1026,-7.1032,-7.1038,0,0,0,0,0,0,0,0,0,0,0,0,0,-7.0525,-7.0531,-7.0808,-7.081,-7.0812,-7.0939,-7.094,-7.0942,-7.0905,-7.0902,-7.0899,-7.0896,-7.1024,-7.1031,-7.1038,0,0,0,0,0,0,0,0,0,0,0,0,0,-7.0651,-7.0532,-7.0808,-7.0809,-7.081,-7.0938,-7.094,-7.0943,-7.0906,-7.0902,-7.0898,-7.0894,-7.1022,-7.1031,-7.1039,-7.1174,0,0,-7.1067,-7.107,0,0,0,0,0,0,0,0,-7.0644,-7.0661,-7.0807,-7.0809,-7.0811,-7.0902,-7.0888,-7.102,-7.0907,-7.0869,-7.0897,-7.0892,-7.0988,-7.0999,-7.1032,-7.118,-7.1186,-7.1067,-7.1073,-7.1077,-7.1079,0,0,0,0,0,0,0,-7.0635,-7.0656,-7.086,-7.0809,-7.0811,-7.0802,-7.0815,-7.0913,-7.0949,-7.0872,-7.087,-7.0886,-7.0988,-7.1024,-7.1035,-7.1188,-7.1067,-7.1075,-7.108,-7.1084,-7.1454,-7.1458,0,0,0,0,0,0,-7.0626,-7.0649,-7.0856,-7.0864,-7.0716,-7.081,-7.0825,-7.0876,-7.0948,-7.0955,-7.0889,-7.0884,-7.1011,-7.1025,-7.1039,-7.1203,-7.1076,-7.1085,-7.109,-7.145,-7.1455,-7.146,0,0,0,0,0,0,-7.062,-7.0644,-7.0851,-7.0756,-7.0781,-7.0819,-7.0877,-7.0881,-7.0917,-7.0961,-7.0967,-7.092,-7.1008,-7.1027,-7.1142,-7.1207,-7.1089,-7.1097,-7.1444,-7.1451,-7.1457,-7.153,0,0,0,0,0,0,-7.0612,-7.0643,-7.0695,-7.0757,-7.0786,-7.0951,-7.0881,-7.0886,-7.0933,-7.0927,-7.0991,-7.0998,-7.1006,-7.1128,-7.115,-7.1217,-7.1104,-7.1438,-7.1447,-7.1455,-7.1522,-7.1539,-7.1553,0,0,0,0,0,-7.0602,-7.0709,-7.0697,-7.0723,-7.0852,-7.0955,-7.0972,-7.0981,-7.0938,-7.099,-7.1019,-7.0996,-7.1196,-7.1141,-7.1165,-7.1235,-7.1434,-7.1445,-7.1455,-7.1515,-7.1535,-7.1552,0,0,0,0,0,0,-7.0651,-7.0717,-7.0705,-7.0835,-7.089,-7.0949,-7.1015,-7.1002,-7.1068,-7.106,-7.1067,-7.1082,-7.12,-7.1229,-7.1165,-7.137,-7.1309,-7.1324,-7.1347,-7.1366,-7.1381,-7.1372,-7.1111,0,0,0,0,0,-7.0677,-7.0756,-7.0809,-7.0919,-7.0947,-7.0977,-7.1022,-7.1024,-7.1081,-7.1103,-7.114,-7.1195,-7.127,-7.132,-7.1391,-7.1526,-7.154,-7.1587,-7.1602,-7.1614,-7.1628,-7.1702,-7.1724,-7.1493,-7.1493,-7.1493,0,0,-7.0731,-7.0777,-7.0826,-7.093,-7.0973,-7.1054,-7.0996,-7.1084,-7.1144,-7.1116,-7.1227,-7.1257,-7.1318,-7.1444,-7.1501,-7.1472,-7.1695,-7.1627,-7.1637,-7.1643,-7.1715,-7.1737,-7.1756,-7.15,-7.1499,-7.1498,0,0,-7.0873,-7.0915,-7.1012,-7.1057,-7.1123,-7.1142,-7.1166,-7.1227,-7.1246,-7.1358,-7.1339,-7.141,-7.154,-7.1585,-7.1625,-7.1786,-7.1767,-7.1809,-7.1889,-7.1962,-7.198,-7.1996,-7.2054,-7.2075,-7.1822,-7.1822,-7.1822,0,-7.0931,-7.1054,-7.1063,-7.1154,-7.12,-7.1181,-7.1279,-7.1322,-7.1407,-7.144,-7.1406,-7.157,-7.1609,-7.1746,-7.1786,-7.1819,-7.1846,-7.1801,-7.1977,-7.1993,-7.2008,-7.2064,-7.2085,-7.1827,-7.1826,-7.1826,-7.1825,0,-7.1124,-7.1209,-7.128,-7.1365,-7.142,-7.1513,-7.1537,-7.159,-7.1589,-7.1611,-7.1726,-7.1774,-7.1856,-7.1888,-7.1887,-7.2026,-7.2006,-7.1974,-7.1913,-7.2035,-7.2087,-7.2108,-7.1834,-7.1832,-7.1831,-7.1829,0,0,-7.1298,-7.139,-7.1415,-7.1455,-7.1527,-7.1593,-7.1686,-7.1768,-7.1815,-7.1875,-7.1953,-7.2065,-7.2037,-7.2082,-7.2085,-7.2149,-7.2275,-7.211,-7.2112,-7.214,-7.2432,-7.2456,-7.248,-7.2263,-7.2267,-7.2271,-7.2427,0,-7.1446,-7.1612,-7.1624,-7.1773,-7.1853,-7.1836,-7.1917,-7.197,-7.1995,-7.2065,-7.2091,-7.217,-7.2127,-7.2155,-7.2217,-7.2247,-7.2334,-7.2235,-7.2336,-7.234,-7.2322,-7.2508,-7.2532,-7.2678,-7.2448,-7.2451,-7.2454,0,-7.164,-7.1709,-7.1867,-7.193,-7.1964,-7.2037,-7.2114,-7.2181,-7.2241,-7.2254,-7.2307,-7.2302,-7.2397,-7.2333,-7.2465,-7.2398,-7.244,-7.2461,-7.2467,-7.2476,-7.2404,-7.2523,-7.2725,-7.2747,-7.2486,-7.2483,-7.2481,0,-7.1753,-7.1884,-7.1996,-7.203,-7.2107,-7.2159,-7.2192,-7.2249,-7.2298,-7.2365,-7.2397,-7.2473,-7.2515,-7.2574,-7.259,-7.2542,-7.2722,-7.2659,-7.2736,-7.2736,-7.2774,-7.2772,-7.2986,-7.2801,-7.2801,-7.28,-7.28,0,-7.1917,-7.2015,-7.2048,-7.2117,-7.2226,-7.2239,-7.2346,-7.2376,-7.2427,-7.2501,-7.2491,-7.2561,-7.2577,-7.265,-7.2663,-7.2771,-7.2789,-7.2803,-7.2805,-7.2804,-7.2803,-7.2832,-7.2822,-7.2806,-7.2805,-7.2804,-7.2803,0,-7.2061,-7.2088,-7.2209,-7.2272,-7.229,-7.2368,-7.2421,-7.2487,-7.2511,-7.2605,-7.2628,-7.2664,-7.2749,-7.2771,-7.2873,-7.2881,-7.3009,-7.3001,-7.299,-7.2989,-7.3065,-7.3058,-7.3306,-7.334,-7.3132,-7.3134,-7.3135,0,-7.2164,-7.2239,-7.2311,-7.2361,-7.2398,-7.2478,-7.2529,-7.2544,-7.2597,-7.2673,-7.273,-7.2815,-7.2883,-7.302,-7.3055,-7.3133,-7.3128,-7.3209,-7.3139,-7.3136,-7.313,-7.3126,-7.3134,-7.3223,-7.3225,-7.3227,-7.3228,0,-7.2345,-7.2355,-7.2429,-7.2509,-7.257,-7.2633,-7.2693,-7.2735,-7.2759,-7.2819,-7.2907,-7.2961,-7.3066,-7.315,-7.3229,-7.3263,-7.325,-7.325,-7.3272,-7.3272,-7.3262,-7.327,-7.3027,-7.3244,-7.3243,-7.3241,-7.324,-7.324,-7.2472,-7.2539,-7.2601,-7.2684,-7.2732,-7.2789,-7.2855,-7.2887,-7.2962,-7.3049,-7.3054,-7.315,-7.3209,-7.3314,-7.3353,-7.3428,-7.3403,-7.3435,-7.3443,-7.3451,-7.3458,-7.3251,-7.3442,-7.3442,-7.3442,-7.3441,-7.3441,0,-7.2653,-7.2693,-7.277,-7.2855,-7.2921,-7.2905,-7.2971,-7.3027,-7.3113,-7.317,-7.3238,-7.334,-7.3422,-7.3465,-7.3546,-7.3598,-7.3595,-7.3619,-7.3616,-7.3624,-7.3475,-7.3448,-7.3621,-7.3621,-7.3621,-7.3621,-7.3621,-7.3621,-7.2755,-7.2868,-7.2885,-7.3021,-7.3059,-7.3155,-7.3194,-7.3247,-7.3293,-7.3408,-7.3477,-7.3505,-7.3556,-7.3642,-7.3716,-7.3727,-7.3757,-7.3785,-7.3793,-7.3653,-7.3634,-7.3617,-7.3592,-7.3792,-7.3792,-7.3936,-7.3937,-7.3938]}]]